www.pogodaiklimat.ru

Погода и климат >> Архив погоды >> Мадагаскар >> Тулиара


ПОГОДА в Тулиаре

  • Прогноз погоды в Тулиаре
  • Монитор погоды в Тулиаре

АРХИВ ПОГОДЫ в Тулиаре

Время (UTC), дата Ветер
(напр.,м/с)
 
Видим.   Явления Облачность Т
(С)
Тd
(С)
f
(%)
Тe
(С)
Тes
(С)
Комфортность P
(гПа)
Po
(гПа)
Тmin
(С)
Tmax
(С)
R
(мм)
R24
(мм)
S
(см)
09 15.02 ЮЗ 7 40 км 3/1 600 м
[Cu Sc Ac trans Ci sp]
+31.6 +24.7 67 +45 +49 опасность
перегрева
1011.9 1011.0
12 15.02 ЮЗ 7 40 км 5/1 600 м
[Cb cap Ac trans Ci ing]
+31.5 +23.6 63 +43 +45 опасность
перегрева
1010.7 1009.8
15 15.02 ЮЗ 9 н/о н/о +29.4 +24.5 75 +42 +42 опасность
перегрева
1009.8 1008.9 +32.2
00 16.02 штиль 0 35 км 9/4 600 м
[Cu Sc Ci sp]
+23.5 +23.2 98 +31 +31 очень
душно
1011.9 1011.0
03 16.02 В 1 40 км 8/3 600 м
[Cu Sc Ci sp]
+23.2 +22.5 96 +32 +32 очень
душно
1012.0 1011.1
06 16.02 ЮЗ 3 40 км 3/1 600 м
[Cu med, cong Ci sp]
+29.2 +23.3 71 +40 +47 очень
душно
1012.6 1011.7 +23.1
09 16.02 ЮЗ 5 40 км 1/1 600 м
[Cu med, cong Ci sp]
+31.7 +23.6 62 +43 +52 опасность
перегрева
1011.3 1010.4
12 16.02 ЮЗ 4 30 км гроза без осадков 3/3 600 м
[Cb cap Ci ing]
+31.6 +25.1 69 +46 +51 опасность
перегрева
1010.1 1009.2
15 16.02 ЮЗ 5 30 км в посл. час гроза 3/3 600 м
[Cb cap Ci ing]
+29.6 +25.7 80 +44 +44 опасность
перегрева
1010.4 1009.5
00 17.02 Ю 2 35 км 8/1 1200 м
[Sc Ci sp]
+25.5 +23.2 87 +34 +34 очень
душно
1010.9 1010.0
03 17.02 СВ 2 40 км 8/1 1200 м
[Sc Ci sp]
+24.1 +22.4 90 +31 +31 очень
душно
1010.5 1009.6
06 17.02 Ю 4 40 км 3/0
[Ci sp]
+30.6 +22.2 61 +40 +46 очень
душно
1011.5 1010.6 +24.2
09 17.02 З 5 40 км 6/4 600 м
[Cu Sc Ci sp]
+31.9 +24.4 65 +45 +51 опасность
перегрева
1011.0 1010.1
12 17.02 СЗ 8 40 км 8/4 600 м
[Cb cap Ci ing]
+32.4 +25.6 67 +47 +48 опасность
перегрева
1009.8 1008.9
15 17.02 С 3 40 км 9/3 600 м
[Cb cap Ci ing]
+30.9 +24.8 70 +44 +44 опасность
перегрева
1008.9 1008.0
00 18.02 В 2 35 км зарница 9/1 600 м
[Cb cap Ac trans Ci ing]
+26.3 +24.2 88 +37 +37 очень
душно
1007.9 1007.0
03 18.02 С 3 40 км 9/1 600 м
[Cb cap Ac trans Ci ing]
+26.3 +22.4 79 +34 +34 очень
душно
1007.0 1006.1
06 18.02 С 7 н/о н/о +30.5 +24.4 70 +43 +43 опасность
перегрева
1005.8 1004.9 +25.9 +34.2
09 18.02 З 10 40 км 9/5 600 м
[Cb cap Ac trans Ci ing]
+33.7 +24.0 57 +46 +46 опасность
перегрева
1007.0 1006.3
12 18.02 З 10 30 км 9/3 600 м
[Cb cap Ac As]
+32.5 +22.0 54 +41 +41 опасность
перегрева
1004.1 1003.2
15 18.02 С 16 10 км слаб. ливневой дождь, в посл. час гроза 10/1 600 м
[Cb cap Ac As]
+25.0 +23.8 93 +34 +34 очень
душно
1005.8 1004.9 1
18 18.02 СВ 4 15 км слаб. ливневой дождь, в посл. час гроза 10/4 600 м
[Cb cap Ac As]
+24.4 +24.3 99 +34 +34 очень
душно
1007.0 1006.1 18
21 18.02 В 3 15 км слаб. дождь 10/3 600 м
[Cu Sc Ac As]
+24.7 +24.4 98 +34 +34 очень
душно
1005.6 1004.7 24
00 19.02 СВ 2 30 км осадки на расстоянии 9/4 600 м
[Cu Sc Ac As]
+25.2 +24.3 95 +35 +35 очень
душно
1003.1 1002.2 9
03 19.02 В 1 35 км осадки на расстоянии 9/4 600 м
[Cu Sc Ac trans]
+24.8 +24.1 96 +34 +34 очень
душно
1003.2 1002.3 25
06 19.02 штиль 0 15 км слаб. дождь 10/4 600 м
[Cu Sc Ac As]
+26.6 +25.2 92 +38 +41 очень
душно
1005.0 1004.1 +24.7 25
09 19.02 Ю 2 10 км слаб. дождь 10/4 600 м
[Cu Sc Ac As]
+24.0 +24.0 100 +33 +37 очень
душно
1005.4 1004.5 16
12 19.02 ЮВ 1 10 км дождь 10/4 600 м
[Cb cap Ac cuf]
+23.8 +23.8 100 +32 +35 очень
душно
1003.3 1002.4 51
15 19.02 С 10 35 км осадки на расстоянии 9/5 600 м
[Cu Sc Ac As]
+27.8 +25.1 85 +40 +40 очень
душно
1002.0 1001.1 40
00 20.02 штиль 0 30 км осадки на расстоянии 9/9 600 м
[Cu Sc]
+24.7 +24.7 100 +35 +35 очень
душно
1005.0 1004.1 0.2
03 20.02 штиль 0 35 км осадки на расстоянии 5/5 600 м
[Cu Sc]
+24.5 +24.4 99 +34 +34 очень
душно
1005.2 1004.3 0.2
09 20.02 ЮЗ 5 35 км осадки на расстоянии 8/8 600 м
[Cu Sc Ci sp]
+28.2 +25.8 87 +42 +44 опасность
перегрева
1007.8 1006.9
12 20.02 Ю 7 35 км осадки на расстоянии 9/8 600 м
[Cu Sc Ci sp]
+28.9 +25.2 80 +42 +42 опасность
перегрева
1007.5 1006.6
15 20.02 Ю 9 35 км осадки на расстоянии 9/9 600 м
[Cu Sc]
+28.2 +24.4 80 +40 +40 очень
душно
1009.1 1008.2
00 21.02 ЮВ 1 35 км 1/1 600 м
[Cu Sc Ci sp]
+23.6 +23.3 98 +32 +32 очень
душно
1011.5 1010.6
03 21.02 Ю 1 40 км 4/4 600 м
[Cu Sc Ci sp]
+23.1 +23.0 99 +32 +32 очень
душно
1012.6 1011.7
06 21.02 Ю 3 н/о н/о +28.3 +23.1 73 +38 +38 очень
душно
1012.3 1011.4 +23.0 +30.1
09 21.02 ЮЗ 6 40 км 3/3 600 м
[Cu Sc]
+29.5 +24.1 73 +41 +47 опасность
перегрева
1013.6 1012.7
12 21.02 ЮЗ 5 40 км 3/3 600 м
[Cu Sc]
+29.9 +22.2 63 +39 +43 очень
душно
1012.5 1011.6
15 21.02 ЮЗ 7 н/о н/о +28.3 +21.0 65 +36 +36 очень
душно
1010.6 1009.7 +30.4
00 22.02 В 1 35 км 3/3 600 м
[Cu Sc]
+23.8 +21.6 87 +30 +30 очень
душно
1012.4 1011.5
03 22.02 В 1 40 км 1/1 600 м
[Cu Sc]
+22.6 +21.6 94 +30 +30 очень
душно
1013.3 1012.4
06 22.02 В 3 40 км 1/1 600 м
[Cu Sc]
+28.7 +22.1 68 +37 +45 очень
душно
1013.3 1012.4 +22.8

 

Местоположение метеостанции Тулиара (Мадагаскар): широта -23.38 долгота 43.73 высота над уровнем моря 8 м.

В архиве по умолчанию представлена погода в Тулиаре за последнюю неделю. Архивные данные за месяц целиком и за предыдущие месяцы, начиная с января 2011 года, Вы можете получить, выбрав интересующий диапазон дат из раскрывающегося списка и нажав кнопку "Ввод!".


*Определитесь, кто Вы:
робот инопланетянин человек

Внимание! Время в таблицах - всемирное. Для получения местного времени необходимо прибавить поправку, которая равна 3 ч.

Смотрите также архив погоды в соседних городах и на ближайших метеорологических станциях:

Погода в Моромбе (Мадагаскар) (185 км)
Погода в Раноайре (Мадагаскар) (295 км)
Погода в Мурундаве (Мадагаскар) (350 км)
Погода на Острове Европа (Реюньон) (372 км)
Погода в Толанаро (Мадагаскар) (375 км)
Погода в Фианаранцуа (Мадагаскар) (408 км)
Погода в Фарафангане (Мадагаскар) (424 км)
Погода в Манандзари (Мадагаскар) (516 км)
Погода в Анцирабе (Мадагаскар) (526 км)
Погода в Мэнтирано (Мадагаскар) (594 км)

Пояснения к столбцам:

Ветер - указаны скорость ветра в м/с - средняя за 10 мин, порывы в срок и между сроками (в фигурных скобках) и направление, откуда дует ветер: С - северный, СВ - северо-восточный, В - восточный, ЮВ - юго-восточный, Ю - южный, ЮЗ - юго-западный, З - западный, СЗ - северо-западный.
Видимость - горизонтальная дальность видимости в метрах или километрах. При видимости от 1 до 10 км при отсутствии осадков обычно наблюдается дымка, при ухудшении видимости до 1 км и менее - туман. В сухую погоду видимость может ухудшаться дымом, пылью или мглою.
Явления - указаны атмосферные явления, наблюдавшиеся в срок или в последний час перед сроком; фигурными скобками обозначены явления, наблюдавшиеся между сроками (за 1-3 часа до срока); квадратными скобками обозначены град или гололедные отложения с указанием их диаметра в мм.
Облачность - указаны через наклонную черту общая и нижняя облачность в баллах и высота нижней границы облаков в метрах; квадратными скобками обозначены формы облаков: Ci - перистые, Cs - перисто-слоистые, Cc - перисто-кучевые, Ac - высококучевые, As - высокослоистые, Sc - слоисто-кучевые, Ns - слоисто-дождевые, Cu - кучевые, Cb - кучево-дождевые. Подробнее классификацию облаков см. в Атласе облаков (PDF).
T - Температура воздуха - температура, измеренная на высоте 2 м над землей.
Td - Температура точки росы - температура, при понижении до которой содержащийся в воздухе водяной пар достигнет насыщения.
f - Относительная влажность воздуха - влажноcть воздуха, измеренная на высоте 2 м над землей.
Te - Эффективная температура - температура, которую ощущает одетый по сезону человек в тени. Характеристика душности погоды. При расчете учитывается влияние влажности воздуха и скорости ветра на теплоощущения человека.
Tes - Эффективная температура на солнце - температура, которую ощущает человек, с поправкой на солнечный нагрев. Характеристика знойности погоды. Зависит от высоты солнца над горизонтом, облачности и скорости ветра. Ночью, в пасмурную погоду, а также при ветре 12 м/с и более поправка равна нулю.
P - Атмосферное давление - приведенное к уровню моря атмосферное давление.
Po - Атмосферное давление - измеренное на уровне метеостанции атмосферное давление.
Tmin - Минимальная температура - минимум температуры воздуха на высоте 2 м над землей.
Tmax - Максимальная температура - максимум температуры воздуха на высоте 2 м над землей.
R - Количество осадков - Количество выпавших осадков за период времени, мм. При наведении курсора мыши на число - период времени, за который выпало указанное количество осадков.
R24 - Количество осадков - Количество выпавших осадков за 24 часа, мм.
S - Снежный покров - Высота снежного покрова, см. При наведении курсора мыши на число - состояние снежного покрова и степень покрытия местности в баллах.